Wind_Speed
23 21 21 19 17 15 13 10 8 5 3 2 3 4 5 6 7 6 5 4 2 2 2 3 3 3 4 4 5 6 8 10 11 12 13 14 13 13 12 11 11 10
22 21 21 19 16 14 12 10 7 5 3 3 3 5 5 6 7 7 6 4 3 3 3 3 3 4 4 4 4 6 8 10 11 12 13 14 14 14 13 12 11 10
23 22 21 19 17 14 12 9 7 5 4 4 4 5 6 6 6 7 7 5 3 3 4 4 4 4 4 4 5 6 7 8 9 10 11 11 12 12 12 12 11 10
23 22 22 20 17 14 11 10 8 7 6 6 6 6 6 7 7 7 7 5 4 4 4 5 5 5 5 6 6 6 7 8 8 9 9 9 9 9 10 10 10 10
23 23 22 19 16 14 12 11 10 9 8 8 7 7 7 8 8 8 8 6 4 4 5 5 6 6 6 7 7 7 8 8 8 9 9 9 9 9 9 9 10 10
23 22 21 19 16 15 14 13 13 12 10 9 9 9 8 9 9 8 8 6 5 5 5 6 7 7 7 7 8 8 8 8 9 9 9 9 9 9 9 9 10 11
23 23 22 20 18 18 17 16 15 14 12 11 11 11 9 9 9 8 7 6 6 7 6 7 8 8 8 8 8 8 9 9 10 10 9 9 8 8 8 9 10 11
24 24 23 22 21 20 20 19 17 15 13 13 13 12 11 10 10 8 7 7 7 8 8 7 8 9 9 9 9 9 10 11 11 11 11 10 10 10 10 10 11 12
25 25 24 23 23 23 23 21 18 16 15 14 14 14 13 11 10 8 7 7 8 9 8 8 9 10 10 10 11 11 11 11 12 12 11 11 11 11 11 11 11 12
26 26 25 24 24 24 23 21 18 17 17 16 15 15 15 13 11 8 6 7 8 9 9 9 10 11 11 12 12 12 12 12 12 12 11 11 10 10 10 10 10 10
27 27 26 25 25 25 24 22 19 18 18 18 18 18 17 14 12 8 6 7 9 9 10 11 12 12 12 12 12 12 11 11 11 11 11 10 10 9 9 8 8 7
29 28 27 25 25 26 26 24 22 21 21 21 20 19 18 16 14 10 7 8 10 10 11 12 12 12 12 12 12 11 10 10 10 10 10 9 9 8 8 7 6 6
31 30 28 26 27 27 27 26 24 22 22 22 22 21 20 19 17 12 9 10 12 12 12 12 12 12 12 11 11 10 9 9 9 9 9 8 8 7 7 7 7 7
31 32 30 28 28 28 27 26 25 24 24 24 24 24 23 22 20 15 12 12 14 14 14 14 14 13 12 11 11 10 9 9 8 8 8 8 8 8 8 8 8 8
29 31 31 30 29 29 28 27 27 26 27 27 27 27 26 25 23 18 15 16 17 17 16 16 15 14 14 13 12 12 11 10 9 9 9 9 9 10 10 10 10 10
27 28 29 29 30 30 31 32 31 29 28 28 29 29 28 26 24 21 19 19 20 19 19 18 17 17 16 15 15 14 13 12 11 11 11 10 11 11 11 12 12 12
26 27 27 29 31 32 33 34 31 29 30 32 31 29 29 27 26 25 22 21 22 21 21 20 20 19 18 17 16 16 15 15 14 13 13 13 13 13 13 14 14 14
24 26 28 29 31 32 34 32 26 24 27 32 33 32 31 29 29 28 24 22 22 22 22 22 22 21 20 19 19 19 18 17 17 16 16 15 16 15 16 16 16 16
21 23 23 23 23 23 25 24 21 19 21 25 27 29 31 33 33 30 25 21 21 23 23 23 23 22 21 21 21 21 20 19 19 18 18 19 19 19 18 18 19 19
15 16 16 16 15 14 16 18 18 19 20 21 21 21 26 30 30 26 23 21 22 24 24 24 24 23 23 22 22 22 22 21 21 21 21 22 22 22 21 21 21 21
12 13 14 14 13 12 13 14 15 16 17 17 17 16 18 22 24 23 22 22 23 24 25 25 25 24 24 24 24 24 24 24 24 24 24 24 24 24 24 23 23 24
10 11 12 12 11 11 11 12 11 10 11 13 15 16 18 20 21 21 21 23 24 26 26 26 26 26 26 26 26 26 26 26 27 27 27 26 26 26 26 26 26 26
9 8 9 10 10 10 11 12 11 10 10 13 15 17 17 19 22 23 23 23 25 26 26 26 27 27 27 28 28 28 29 29 29 28 28 27 27 27 28 28 28 27
7 7 8 9 9 9 10 12 12 11 12 14 15 16 18 18 20 23 24 24 24 25 26 27 27 28 28 29 29 30 30 30 29 29 28 28 29 29 29 29 29 29
6 6 7 8 8 9 11 13 13 13 13 14 15 17 19 18 18 19 21 22 23 25 27 29 29 29 29 29 29 30 30 30 29 29 29 30 30 30 30 30 30 31
5 6 7 8 8 9 10 11 12 13 14 15 16 18 19 19 20 21 22 23 25 27 29 29 27 26 27 28 28 29 30 30 30 30 31 31 31 32 32 32 33 33
Wind_Direction
172 172 174 175 172 170 172 174 174 173 183 242 299 322 327 323 328 334 329 324 325 325 315 297 280 250 229 217 210 201 197 199 199 196 197 200 205 209 211 208 201 195
175 179 181 179 176 176 179 182 182 186 220 259 291 313 318 317 323 329 323 311 302 307 302 287 272 249 224 204 202 196 190 192 197 199 200 204 208 210 210 208 202 195
180 184 186 182 181 182 184 190 198 206 234 262 284 300 305 307 317 325 320 303 286 293 293 281 264 243 213 192 193 186 178 180 184 190 195 199 203 203 203 201 197 192
185 187 189 187 186 188 190 201 213 221 238 256 271 287 298 303 310 319 318 301 273 275 279 270 252 234 207 188 186 177 169 168 170 173 174 176 178 179 182 185 183 179
188 191 193 192 193 198 204 214 225 232 240 250 257 274 293 299 300 309 316 302 270 262 262 253 241 228 206 188 182 172 164 164 163 160 158 158 157 157 162 165 164 164
192 195 197 198 202 209 215 222 231 236 243 252 254 264 287 296 292 300 312 301 270 258 251 238 230 220 203 188 178 169 162 160 159 154 152 154 151 151 156 158 159 162
196 197 199 203 208 214 218 223 231 237 246 258 259 262 279 289 286 293 306 295 266 254 245 230 223 214 197 183 173 166 163 160 158 154 153 153 151 153 157 159 162 164
201 201 204 208 211 216 220 225 232 239 248 258 260 262 273 283 281 288 302 290 263 251 241 225 216 206 189 177 167 163 162 160 157 156 154 151 149 149 152 155 158 157
205 206 208 210 212 217 222 226 232 239 246 254 260 263 268 275 275 281 294 283 260 246 234 218 205 195 182 170 163 161 161 157 154 153 151 150 148 148 150 151 151 150
211 212 210 210 213 218 223 227 232 239 243 250 257 259 262 266 266 269 281 274 256 239 221 205 194 187 178 168 163 163 162 159 157 154 152 154 154 155 156 155 155 154
215 217 213 213 217 221 225 228 232 236 241 246 250 252 255 260 260 259 264 259 247 231 209 196 189 184 178 171 168 169 168 168 169 166 165 166 167 167 168 168 170 171
217 219 216 216 220 224 226 229 231 234 239 244 247 249 252 257 258 255 251 244 236 224 205 194 190 186 184 180 177 179 180 181 183 182 184 186 186 188 189 192 196 200
215 217 216 217 221 224 227 231 233 236 240 243 247 250 252 258 259 252 241 232 225 216 205 197 193 192 192 192 191 194 196 199 202 204 208 211 214 218 222 228 233 235
213 216 218 219 221 224 227 231 234 236 238 242 247 249 250 256 255 244 231 224 218 212 206 201 199 200 201 202 204 206 210 216 222 230 237 244 249 253 257 261 264 262
214 217 220 222 223 225 227 230 233 237 238 242 247 251 253 253 247 235 223 217 212 208 207 205 204 206 208 210 214 218 221 228 236 243 250 257 262 265 268 269 270 270
222 224 225 227 229 231 232 232 231 233 238 243 247 251 253 246 234 226 221 215 209 207 208 208 208 210 214 218 223 228 232 236 240 245 249 254 258 261 263 264 265 265
228 229 229 231 234 235 237 238 236 235 239 242 242 245 249 239 224 219 219 214 211 209 210 214 215 216 220 224 230 236 239 241 241 242 247 250 254 258 261 262 263 262
235 236 236 237 239 239 241 246 251 250 246 243 240 242 243 231 216 214 214 212 213 214 216 220 223 225 229 232 237 242 244 245 246 247 249 251 253 256 259 261 262 262
241 242 240 240 242 240 238 241 248 251 247 243 240 240 237 226 214 211 212 213 217 220 222 226 229 233 237 241 244 248 250 252 253 255 256 257 257 258 259 261 263 264
230 230 230 232 234 230 227 230 240 247 246 240 235 236 237 227 216 210 212 216 221 224 227 230 233 237 241 245 249 252 255 258 261 263 265 265 266 267 267 267 266 267
219 223 226 229 230 230 230 233 242 245 237 226 219 219 221 215 209 209 215 220 224 228 230 231 234 238 242 246 251 254 258 261 264 267 269 270 271 271 271 271 271 271
214 223 228 225 227 237 235 225 225 224 207 195 193 195 199 204 209 216 221 224 227 231 233 234 236 240 243 246 250 253 257 259 262 265 267 267 268 267 268 269 269 270
203 214 223 221 225 237 227 210 204 200 198 198 197 199 207 215 220 224 227 229 231 234 236 238 239 241 243 246 249 251 254 257 259 262 263 264 264 264 265 266 267 267
201 208 212 208 212 220 213 209 211 215 223 227 219 217 223 227 229 230 230 232 235 236 238 239 240 241 243 244 247 250 252 255 258 259 261 261 262 262 264 265 265 265
204 209 209 208 215 221 218 221 228 234 239 237 229 229 235 240 243 240 237 239 242 244 244 242 240 241 243 245 248 250 252 254 256 257 259 260 260 261 262 263 264 264
213 216 216 219 228 233 231 233 239 244 247 246 242 245 247 248 250 250 248 248 251 252 253 252 250 248 246 247 250 251 253 255 256 257 259 260 261 262 263 265 266 267
Height
3135 3137 3139 3141 3143 3144 3145 3147 3148 3149 3150 3152 3152 3153 3153 3153 3153 3153 3153 3153 3153 3154 3155 3155 3156 3156 3156 3156 3156 3156 3156 3156 3157 3158 3159 3160 3161 3161 3162 3164 3165 3166
3135 3137 3139 3141 3142 3143 3144 3146 3147 3148 3150 3151 3152 3152 3152 3152 3152 3152 3152 3152 3153 3153 3154 3155 3155 3155 3155 3156 3156 3156 3156 3156 3157 3157 3158 3159 3160 3161 3162 3163 3165 3166
3135 3137 3139 3140 3141 3142 3143 3145 3146 3148 3149 3150 3151 3151 3151 3152 3152 3152 3152 3152 3153 3153 3153 3154 3155 3155 3155 3156 3156 3156 3156 3156 3157 3157 3158 3158 3159 3160 3161 3162 3164 3165
3134 3136 3137 3139 3140 3142 3143 3144 3146 3147 3148 3149 3150 3150 3151 3151 3151 3152 3152 3152 3152 3153 3153 3154 3154 3155 3155 3156 3156 3156 3157 3157 3157 3158 3158 3158 3159 3160 3161 3162 3163 3164
3133 3135 3136 3138 3140 3141 3143 3144 3145 3146 3147 3148 3149 3150 3150 3150 3151 3151 3151 3151 3152 3152 3153 3153 3154 3155 3155 3156 3156 3157 3157 3157 3158 3158 3158 3159 3160 3160 3161 3162 3163 3164
3132 3134 3136 3138 3139 3141 3142 3143 3144 3145 3146 3148 3149 3149 3149 3150 3150 3150 3150 3151 3151 3152 3152 3152 3153 3154 3155 3156 3157 3157 3158 3158 3159 3159 3159 3160 3160 3161 3162 3162 3163 3164
3131 3133 3135 3137 3138 3139 3140 3142 3143 3143 3145 3146 3147 3148 3148 3149 3149 3149 3149 3150 3151 3151 3151 3152 3152 3153 3155 3156 3157 3157 3158 3159 3159 3159 3159 3160 3161 3161 3162 3163 3163 3164
3130 3132 3134 3135 3137 3138 3139 3140 3141 3142 3143 3145 3146 3147 3147 3148 3148 3148 3149 3149 3150 3151 3151 3151 3152 3153 3154 3155 3156 3157 3158 3159 3159 3160 3160 3160 3161 3162 3162 3163 3164 3164
3129 3131 3133 3135 3136 3137 3138 3139 3140 3141 3142 3143 3144 3145 3147 3148 3148 3147 3148 3149 3150 3150 3150 3151 3152 3153 3154 3155 3156 3157 3158 3159 3160 3160 3160 3161 3161 3162 3163 3163 3164 3164
3128 3130 3132 3133 3134 3135 3137 3138 3138 3139 3140 3141 3142 3144 3145 3147 3147 3147 3147 3148 3149 3150 3150 3151 3151 3152 3154 3155 3156 3157 3158 3159 3160 3161 3161 3162 3162 3162 3163 3163 3164 3164
3126 3128 3130 3131 3133 3134 3135 3136 3137 3137 3138 3139 3141 3142 3144 3145 3146 3146 3146 3148 3149 3150 3150 3151 3151 3152 3153 3155 3156 3157 3158 3159 3160 3160 3161 3162 3162 3163 3163 3163 3164 3164
3125 3126 3128 3129 3130 3132 3133 3134 3135 3136 3136 3137 3139 3140 3142 3144 3145 3145 3146 3147 3149 3149 3150 3151 3151 3152 3153 3155 3156 3157 3158 3158 3159 3159 3160 3161 3161 3162 3162 3163 3163 3164
3122 3124 3126 3127 3128 3129 3131 3132 3133 3134 3135 3136 3137 3139 3141 3142 3143 3144 3145 3146 3148 3149 3150 3150 3151 3152 3153 3154 3155 3156 3157 3157 3158 3159 3159 3159 3160 3160 3161 3161 3162 3162
3121 3122 3123 3124 3126 3127 3129 3130 3131 3132 3132 3133 3135 3137 3139 3140 3142 3143 3144 3145 3147 3148 3149 3149 3150 3151 3152 3153 3154 3154 3155 3156 3157 3157 3158 3158 3159 3159 3160 3160 3160 3161
3118 3119 3120 3122 3123 3125 3127 3128 3128 3129 3130 3131 3133 3135 3137 3139 3140 3141 3142 3143 3145 3147 3148 3148 3149 3150 3150 3151 3152 3153 3154 3154 3155 3155 3156 3156 3157 3157 3158 3158 3158 3159
3115 3116 3117 3119 3121 3123 3124 3124 3125 3126 3127 3129 3131 3132 3135 3136 3138 3139 3140 3141 3143 3144 3146 3147 3147 3148 3148 3149 3150 3151 3152 3153 3153 3154 3154 3154 3155 3155 3155 3156 3156 3156
3112 3113 3115 3116 3118 3119 3120 3119 3121 3124 3126 3127 3128 3129 3131 3133 3134 3136 3137 3139 3141 3142 3143 3144 3145 3145 3146 3147 3148 3149 3150 3151 3152 3152 3152 3153 3153 3153 3154 3154 3154 3154
3109 3111 3112 3113 3113 3115 3116 3117 3119 3121 3122 3123 3124 3125 3127 3129 3131 3133 3135 3137 3139 3140 3141 3142 3143 3143 3144 3145 3146 3147 3148 3149 3150 3151 3151 3151 3151 3152 3152 3152 3152 3153
3108 3109 3110 3110 3111 3112 3114 3116 3118 3119 3119 3119 3120 3121 3123 3125 3128 3130 3133 3135 3137 3139 3140 3140 3141 3142 3143 3144 3145 3146 3147 3148 3148 3149 3149 3150 3150 3150 3150 3150 3151 3151
3106 3107 3108 3109 3110 3111 3112 3114 3116 3116 3116 3116 3117 3118 3120 3122 3126 3129 3131 3133 3135 3136 3137 3138 3139 3140 3141 3142 3143 3144 3145 3145 3146 3147 3147 3148 3148 3148 3149 3149 3149 3148
3105 3106 3107 3108 3109 3110 3111 3113 3113 3113 3113 3114 3115 3117 3119 3121 3124 3127 3129 3130 3132 3133 3134 3136 3137 3138 3138 3139 3140 3141 3142 3142 3143 3144 3144 3145 3145 3146 3146 3146 3146 3146
3105 3105 3107 3108 3109 3110 3111 3111 3112 3112 3112 3113 3114 3116 3118 3121 3123 3125 3127 3128 3129 3130 3131 3132 3133 3134 3135 3136 3137 3137 3138 3139 3140 3140 3141 3141 3142 3142 3142 3142 3142 3142
3104 3105 3106 3107 3108 3109 3110 3110 3111 3112 3113 3114 3115 3117 3119 3121 3122 3123 3125 3126 3127 3127 3128 3129 3130 3131 3132 3133 3133 3134 3135 3135 3136 3137 3137 3137 3138 3138 3138 3138 3138 3139
3103 3104 3105 3106 3107 3108 3109 3110 3111 3112 3113 3114 3116 3117 3118 3119 3120 3121 3122 3123 3124 3125 3126 3126 3127 3127 3128 3129 3130 3131 3131 3132 3132 3133 3133 3133 3134 3134 3134 3134 3134 3134
3103 3104 3105 3106 3107 3108 3109 3110 3111 3111 3112 3113 3115 3115 3116 3117 3118 3119 3120 3121 3121 3122 3122 3123 3123 3124 3125 3125 3126 3127 3127 3128 3128 3129 3129 3129 3130 3130 3130 3130 3130 3130
3102 3103 3104 3105 3106 3107 3108 3109 3110 3110 3111 3112 3113 3114 3114 3115 3116 3117 3117 3118 3118 3118 3119 3119 3120 3121 3121 3122 3123 3123 3123 3124 3124 3125 3125 3125 3125 3126 3126 3126 3126 3125